Torna al catalogo

FENGYUN 1C DEB

AttivoPO
NORAD 31990·DEBRIS·🇨🇳 China

Lanciato May 10, 1999 da Taiyuan Satellite Launch Center

Loading…

Prossimi Passaggi (prossime 24 ore)

TLE

In scadenzaSource: Space-Track

Epoca: Sep 10, 2026, 06:17 UTC

1 31990U 99025CPT 26253.26207241  .00000134  00000-0  19666-3 0  9998
2 31990  99.1476 262.2326 0259155 208.9923 214.9659 13.57326042664558

Traccia FENGYUN 1C DEB in tempo reale con AllMySat

Download on the App Store